Voltar ao catálogo

FENGYUN 1C DEB

AtivoSSO
NORAD 33693·DEBRIS·🇨🇳 China

Lançado May 10, 1999 de Taiyuan Satellite Launch Center

Loading…

Próximas Passagens (próximas 24 horas)

TLE

AtualizadoSource: Space-Track

Época: Sep 14, 2026, 10:45 UTC

1 33693U 99025DGE 26257.44802764  .00000708  00000-0  69355-3 0  9992
2 33693  99.2369  69.7993 0222223 357.4489   2.5510 13.72019368920116

Acompanhe FENGYUN 1C DEB em tempo real com AllMySat

Download on the App Store